Regional Weather Roundup
Issued by NWS

Home | Current Version | Previous Version | Text Only | Print | Product List | Glossary On
Versions: 1 2 3 4 5 6 7 8 9 10 11 12 13 14 15 16 17 18 19 20 21 22 23 24 25 26 27
000
ASUS45 KPSR 260810
RWRAZ

ARIZONA HOURLY REGIONAL WEATHER ROUNDUP
NATIONAL WEATHER SERVICE PHOENIX AZ
100 AM MST SAT MAY 26 2018

NOTE: FAIR INDICATES FEW OR NO CLOUDS BELOW 12,000 FEET WITH NO
SIGNIFICANT WEATHER AND/OR OBSTRUCTIONS TO VISIBILITY.

AZZ001>003-036-260900-
NORTHWEST ARIZONA

CITY           SKY/WX    TMP DP  RH WIND       PRES   REMARKS
BULLHEAD CITY  CLEAR     77  32  19 SW9       29.79R
KINGMAN          N/A     69  20  15 MISG      29.92F
$$

AZZ004>008-015-016-018-260900-
NORTH CENTRAL ARIZONA

CITY           SKY/WX    TMP DP  RH WIND       PRES   REMARKS
GRAND CANYON   CLEAR     43   9  24 CALM      30.10F
WILLIAMS       CLEAR     57  14  18 SW13G20   30.08S
PRESCOTT       CLEAR     58  20  22 SW6       30.03F
FLAGSTAFF      CLEAR     41  15  35 CALM      30.12F
PAYSON         CLEAR     64  19  17 S3        30.06F
PAGE           CLEAR     74  12   9 SW9G17    29.93R
$$

AZZ009>014-017-260900-
NORTHEAST ARIZONA

CITY           SKY/WX    TMP DP  RH WIND       PRES   REMARKS
WINSLOW        CLEAR     57  16  20 CALM      30.03F
SAINT JOHNS    CLEAR     59  18  20 S6        30.09F
WINDOW ROCK    CLEAR     54  16  22 CALM      30.16S
SHOW LOW       CLEAR     59  21  23 S12       30.15F
$$

AZZ540-542>544-546-548-260900-
GREATER PHOENIX AREA

CITY           SKY/WX    TMP DP  RH WIND       PRES   REMARKS
PHOENIX        MOCLDY    80  27  14 SW6       29.82S
BUCKEYE        CLEAR     72  25  17 SW3       29.84S
LUKE AFB         N/A     80  27  14 S8        29.81
DEER VALLEY    CLEAR     76  24  14 SW5       29.84S
SCOTTSDALE     CLEAR     79  29  16 CALM      29.86S
MESA-GATEWAY   PTCLDY    76  29  17 W6        29.87S
$$

AZZ539-553-260900-
SOUTHWEST MARICOPA COUNTY AND PINAL COUNTY

CITY           SKY/WX    TMP DP  RH WIND       PRES   REMARKS
CASA GRANDE    PTCLDY    71  26  18 W5        29.87F
$$

AZZ503-504-507>509-260900-
SOUTHEAST ARIZONA

CITY           SKY/WX    TMP DP  RH WIND       PRES   REMARKS
TUCSON         CLOUDY    80  35  19 NW6       29.95F
DAVIS-MONTHAN  MOCLDY    76  35  22 W3        29.93F
NOGALES        CLOUDY    67  35  30 SE3       30.02F
SIERRA VISTA   CLOUDY    70  27  20 NW5       30.06
DOUGLAS        MOCLDY    71  29  21 N9        30.03S
SAFFORD        CLOUDY    79  26  14 NW12      29.92S
$$

AZZ532-260900-
SOUTHWEST ARIZONA

CITY           SKY/WX    TMP DP  RH WIND       PRES   REMARKS
YUMA           PTCLDY    70  44  39 NW10      29.86S
$$

CAZ041-043-047-048-061-525>527-560>570-260900-
SOUTHERN CALIFORNIA

CITY           SKY/WX    TMP DP  RH WIND       PRES   REMARKS
DOWNTOWN L.A.  PTCLDY    59  53  80 CALM      30.04F
L.A. AIRPORT   PTCLDY    59  52  77 W16       30.04F
SAN DIEGO      PTCLDY    61  54  77 NW7       30.08F
BURBANK        CLEAR     56  51  84 W5        30.03F
ONTARIO        MOCLDY    56  48  74 SW6       30.04F
RIVERSIDE      CLOUDY    57  49  74 W3        30.05F
PALM SPRINGS   CLEAR     70  43  37 NW12G21   29.88S
EL CENTRO NAS  CLEAR     67  41  38 W26G32    29.90F
IMPERIAL       CLEAR     65  43  44 W20G30    29.86F
BLYTHE         CLEAR     72  47  40 SW12      29.82F
NEEDLES        CLEAR     78  35  21 W9        29.80F
$$

NVZ020-UTZ003-260900-
SOUTHERN NEVADA-UTAH

CITY           SKY/WX    TMP DP  RH WIND       PRES   REMARKS
LAS VEGAS      CLEAR     71  37  28 SW12      29.81F
SALT LAKE CITY CLEAR     68  36  30 E5        29.83S
$$

NMZ009-TXZ055-260900-
NEW MEXICO-WEST TEXAS

CITY           SKY/WX    TMP DP  RH WIND       PRES   REMARKS
ALBUQUERQUE    PTCLDY    68  13  12 SE7       30.03F
EL PASO        PTCLDY    71  23  16 SE7       29.95F
$$


........................KEY........................
SKY/WX - SKY CONDITION/WEATHER
TMP    - TEMPERATURE IN FAHRENHEIT
DP     - DEW POINT IN FAHRENHEIT
RH     - RELATIVE HUMIDITY IN PERCENT
WIND   - DIRECTION AND SPEED IN MILES PER HOUR (MPH)
VRB    - VARIABLE WIND DIRECTION
PRES   - MEAN SEA LEVEL PRESSURE IN INCHES OF MERCURY
         F - FALLING PRESSURE   R - RISING PRESSURE
         S - STEADY PRESSURE
VSB    - VISIBILITY IN MILES
HX     - HEAT INDEX IN FAHRENHEIT
WCI    - WIND CHILL INDEX IN FAHRENHEIT
TC     - TEMPERATURE IN CELSIUS WHICH IS ALSO KNOWN AS
         TEMPERATURE IN CENTIGRADE
AFB    - AIR FORCE BASE
         LUKE AFB IS LUKE AIR FORCE BASE
         DAVIS-MONTHAN IS DAVIS-MONTHAN AIR FORCE BASE
NAS    - NAVAL AIR STATION
         EL CENTRO NAS IS EL CENTRO NAVAL AIR STATION
N/A    - NOT AVAILABLE





USA.gov is the U.S. government's official web portal to all federal, state and local government web resources and services.